Regional Weather Roundup
Issued by NWS

Home | Current Version | Previous Version | Text Only | Print | Product List | Glossary Off
Versions: 1 2 3 4 5 6 7 8 9 10 11 12 13 14 15 16 17 18 19 20 21 22 23 24 25 26 27 28 29 30 31 32 33 34 35 36 37 38 39 40 41 42 43 44 45 46 47 48 49 50

000
ASUS43 KIND 211509
RWRIN

WEATHER ROUNDUP FOR INDIANA
NATIONAL WEATHER SERVICE INDIANAPOLIS IN
1100 AM EDT MON AUG 21 2017

NOTE: "FAIR" INDICATES FEW OR NO CLOUDS BELOW 12,000 FEET WITH NO
SIGNIFICANT WEATHER AND/OR OBSTRUCTIONS TO VISIBILITY.

* - STATION DOES NOT REPORT WEATHER SUCH AS PRECIPITATION OR FOG.

+ - STATION NOT QUALITY CONTROLLED BY THE NATIONAL WEATHER SERVICE.
    USE DATA WITH CAUTION...ESPECIALLY DEWPOINT AND RELATIVE
    HUMIDITY OBSERVATIONS.

INZ001>003-010>013-019-020-211600-
NORTHWEST INDIANA

CITY           SKY/WX    TMP DP  RH WIND       PRES   REMARKS
GARY /AIRPORT/ PTSUNNY   81  70  69 W10       30.07F
KNOX *+        MOSUNNY   79  72  78 SW9       30.08S
LA PORTE +     MOSUNNY   77  71  80 SW10      30.09S
MICHIGAN CITY+ CLOUDY    77  70  78 SW8       30.08S
MONTICELLO +   CLOUDY    78  75  90 SW7       30.10R
RENSSELAER +   PTSUNNY   79  70  73 SW8       30.09S
VALPARAISO     PTSUNNY   79  72  79 SW12      30.09S

$$

LMZ046-743>745-211600-
SOUTHERN LAKE MICHIGAN

STATION/POSITION TIME  TEMP    WIND        PRES    WAVE
                       AIR SEA DIR/SP/G            HT
                 (UTC) (F)     (DEG/KT/KT) (MB)    (FT)
BURNS HARBOR     1408   74     210/ 11/ 15 1018.6
MICHIGAN CITY    1440   75     200/ 10/ 11   N/A
5NW MICH CITY    1500   75 74  230/  8/ 10   N/A     1

$$

INZ004-005-014>016-021>024-211600-
NORTH CENTRAL INDIANA

CITY           SKY/WX    TMP DP  RH WIND       PRES   REMARKS
ELKHART        MOSUNNY   81  70  69 SW8       30.08S
GOSHEN         CLOUDY    79  69  71 SW14      30.09
LOGANSPORT +   CLOUDY    75  72  88 SW10      30.11S
PERU/GRISSOM   CLOUDY    77  74  90 SW12      30.10S
ROCHESTER +    MOSUNNY   81  73  78 SW7       30.10R
SOUTH BEND     PTSUNNY   79  72  79 SW13      30.08S
WARSAW +       CLOUDY    77  72  83 SW7       30.10R

$$

INZ006>009-017-018-025>027-211600-
NORTHEAST INDIANA

CITY           SKY/WX    TMP DP  RH WIND       PRES   REMARKS
AUBURN +       PTSUNNY   81  66  61 S7        30.10F
FORT WAYNE     PTSUNNY   81  68  64 S10       30.11F
HUNTINGTON +   CLOUDY    78  71  79 SW8       30.11S

$$

INZ028-029-035-036-043>045-051>053-211600-
WEST CENTRAL INDIANA

CITY           SKY/WX    TMP DP  RH WIND       PRES   REMARKS
GREENCASTLE +  PTSUNNY   81  72  74 W3        30.14R
LAFAYETTE      CLOUDY    77  74  90 SW5       30.09F
TERRE HAUTE    CLOUDY    84  72  67 SW9       30.12S

$$

INZ030>032-037>040-046>048-054>057-064-065-211600-
CENTRAL INDIANA

CITY           SKY/WX    TMP DP  RH WIND       PRES   REMARKS
CP ATTERBURY + SUNNY     86  68  54 SW9       30.14F
COLUMBUS       MOSUNNY   82  64  54 SW9       30.15R
FRANKFORT +    CLOUDY    81  74  80 W7        30.13S
GREENWOOD *+   MOSUNNY   84  70  63 SW6       30.15S
INDIANAPOLIS   PTSUNNY   85  72  65 SW13      30.12S
-EAGLE CREEK   MOSUNNY   84  72  67 SW7       30.12S
KOKOMO +       CLOUDY    78  73  84 SW9       30.12
MARION +       CLOUDY    79  72  78 SW9       30.13R
MT COMFORT *+  CLOUDY    81  72  74 SW5       30.14R
SHELBYVILLE    MOSUNNY   84  71  65 SW7       30.13S
ZIONSVILLE +   MOSUNNY   79  73  81 SW8       30.13F

$$

INZ033-034-041-042-049-050-058-059-211600-
EAST CENTRAL INDIANA

CITY           SKY/WX    TMP DP  RH WIND       PRES   REMARKS
MUNCIE         CLOUDY    83  71  67 SW10      30.13S
RICHMOND +     SUNNY     81  70  69 SW9       30.17S

$$

INZ060-061-067>069-081>083-085>088-211600-
SOUTHWEST INDIANA

CITY           SKY/WX    TMP DP  RH WIND       PRES   REMARKS
EVANSVILLE     SUNNY     87  66  49 SW7       30.15R
HUNTINGBURG +  MOSUNNY   83  72  69 MISG      30.16R
WASHINGTON +   PTSUNNY   85  65  50 MISG      30.14R

$$

INZ062-063-066-070>080-084-089>092-211600-
SOUTH CENTRAL AND SOUTHEAST INDIANA

CITY           SKY/WX    TMP DP  RH WIND       PRES   REMARKS
BEDFORD +      SUNNY     84  70  61 S3        30.15S
BLOOMINGTON    SUNNY     87  69  54 SW10      30.15R
MADISON *+     SUNNY     84  68  58 S3        30.20R
NORTH VERNON + SUNNY     82  70  65 S7        30.17R
SEYMOUR +      SUNNY     86  70  58 SW6       30.15R

$$





USA.gov is the U.S. government's official web portal to all federal, state and local government web resources and services.